Location: Kershaw
(34.5481°N, 80.5823°W)
Time: 12:48:44
(UTC+00:00)

A-11 Canister half - Pass Details

Date: 11 October 2022
Orbit: 1524 x 1685 km, 47.3° (Epoch: 25 November)

Event Time Altitude Azimuth Distance (km) Brightness Sun altitude
Rises 03:01:07 0° 294° (WNW) 4,733 12.2 -49.7°
Reaches altitude 10° 03:05:01 10° 280° (W) 3,770 11.4 -50.3°
Enters shadow 03:09:34 20° 253° (WSW) 3,045 10.7 -51.0°
